Location: 22
(39.7117°N, 89.5929°W)
Time: 19:04:10
(UTC-05:00)

Gurwin Techsat 1B - Pass Details

Date: 06 April 2023
Orbit: 811 x 813 km, 98.9° (Epoch: 06 June)

Event Time Altitude Azimuth Distance (km) Brightness Sun altitude
Rises 05:12:28 0° 358° (N) 3,346 12.1 -16.1°
Reaches altitude 10° 05:15:25 10° 341° (NNW) 2,410 11.1 -15.5°
Maximum altitude 05:19:06 19° 297° (WNW) 1,831 10.1 -14.9°
Enters shadow 05:20:29 18° 277° (W) 1,922 10.0 -14.6°
